Location: *
(47.6569°N, 7.4256°E)
Time: 23:48:16
(UTC+00:00)

SL-16 R/B - Pass Details

Date: 14 December 2019
Orbit: 840 x 849 km, 71.0° (Epoch: 22 January)

Event Time Altitude Azimuth Distance (km) Brightness Sun altitude
Rises 18:08:01 0° 230° (SW) 3,399 6.3 -24.0°
Reaches altitude 10° 18:10:37 10° 238° (WSW) 2,469 5.5 -24.5°
Maximum altitude 18:15:55 39° 307° (NW) 1,248 3.4 -25.3°
Enters shadow 18:19:20 20° 5° (N) 1,863 3.8 -25.9°
